Satellite: UO-22
Catalog number: 21575
Epoch time:      04351.39058688
Element set:     280
Inclination:       98.2208 deg
RA of node:       317.8832 deg
Eccentricity:    0.0006386
Arg of perigee:   281.6603 deg
Mean anomaly:      78.3879 deg
Mean motion:   14.39445551 rev/day
Decay rate:       1.11e-06 rev/day^2
Epoch rev:           70420
Checksum:              313

Satellite: KO-23
Catalog number: 22077
Epoch time:      04351.36923705
Element set:     340
Inclination:       66.0862 deg
RA of node:       169.3175 deg
Eccentricity:    0.0012927
Arg of perigee:   298.9492 deg
Mean anomaly:      61.0237 deg
Mean motion:   12.86428038 rev/day
Decay rate:       -3.7e-07 rev/day^2
Epoch rev:           58007
Checksum:              305

Satellite: AO-27
Catalog number: 22825
Epoch time:      04350.97065204
Element set:      14
Inclination:       98.2459 deg
RA of node:       350.2510 deg
Eccentricity:    0.0009470
Arg of perigee:    87.3357 deg
Mean anomaly:     272.8910 deg
Mean motion:   14.29102810 rev/day
Decay rate:      -1.14e-06 rev/day^2
Epoch rev:           58505
Checksum:              281

Satellite: IO-26
Catalog number: 22826
Epoch time:      04351.87298414
Element set:     683
Inclination:       98.2411 deg
RA of node:       352.3938 deg
Eccentricity:    0.0009962
Arg of perigee:    80.7852 deg
Mean anomaly:     279.4458 deg
Mean motion:   14.29342180 rev/day
Decay rate:        4.9e-07 rev/day^2
Epoch rev:           58524
Checksum:              336

Satellite: KO-25
Catalog number: 22828
Epoch time:      04351.00052972
Element set:     946
Inclination:       98.2339 deg
RA of node:       351.7944 deg
Eccentricity:    0.0010926
Arg of perigee:    63.8988 deg
Mean anomaly:     296.3311 deg
Mean motion:   14.29658923 rev/day
Decay rate:       -2.4e-07 rev/day^2
Epoch rev:           55334
Checksum:              325

Satellite: TO-31
Catalog number: 25396
Epoch time:      04351.60836226
Element set:     128
Inclination:       98.5560 deg
RA of node:        58.1356 deg
Eccentricity:    0.0002577
Arg of perigee:    15.8563 deg
Mean anomaly:     344.2707 deg
Mean motion:   14.23649140 rev/day
Decay rate:       -4.3e-07 rev/day^2
Epoch rev:           33443
Checksum:              293

Satellite: GO-32
Catalog number: 25397
Epoch time:      04350.84374265
Element set:     626
Inclination:       98.5463 deg
RA of node:        55.2509 deg
Eccentricity:    0.0001593
Arg of perigee:    47.3379 deg
Mean anomaly:     312.7933 deg
Mean motion:   14.23063753 rev/day
Decay rate:       1.01e-06 rev/day^2
Epoch rev:           33425
Checksum:              299

Satellite: UO-36
Catalog number: 25693
Epoch time:      04351.64102566
Element set:     740
Inclination:       64.5586 deg
RA of node:       124.2935 deg
Eccentricity:    0.0041312
Arg of perigee:   235.0121 deg
Mean anomaly:     124.7078 deg
Mean motion:   14.78436642 rev/day
Decay rate:        3.7e-07 rev/day^2
Epoch rev:           30483
Checksum:              286

Satellite: SO-41
Catalog number: 26545
Epoch time:      04350.59291204
Element set:     952
Inclination:       64.5569 deg
RA of node:       143.1500 deg
Eccentricity:    0.0030071
Arg of perigee:   336.9609 deg
Mean anomaly:      23.0095 deg
Mean motion:   14.79960302 rev/day
Decay rate:       1.35e-06 rev/day^2
Epoch rev:           22775
Checksum:              285

Satellite: MO-46
Catalog number: 26548
Epoch time:      04351.60131377
Element set:      55
Inclination:       64.5566 deg
RA of node:       124.9279 deg
Eccentricity:    0.0029515
Arg of perigee:   324.3475 deg
Mean anomaly:      35.5635 deg
Mean motion:   14.82544844 rev/day
Decay rate:       2.21e-06 rev/day^2
Epoch rev:           22821
Checksum:              303

Satellite: SO-42
Catalog number: 26549
Epoch time:      04350.71458589
Element set:      11
Inclination:       64.5556 deg
RA of node:       150.4050 deg
Eccentricity:    0.0030225
Arg of perigee:   346.2858 deg
Mean anomaly:      13.7421 deg
Mean motion:   14.78848471 rev/day
Decay rate:       2.79e-06 rev/day^2
Epoch rev:           22762
Checksum:              304

Satellite: NO-44
Catalog number: 26931
Epoch time:      04351.13264700
Element set:     923
Inclination:       67.0543 deg
RA of node:       339.2414 deg
Eccentricity:    0.0007403
Arg of perigee:   268.5252 deg
Mean anomaly:      91.4978 deg
Mean motion:   14.29347591 rev/day
Decay rate:       -1.0e-07 rev/day^2
Epoch rev:           16760
Checksum:              290

Satellite: AO-49
Catalog number: 27605
Epoch time:      04351.31087580
Element set:     611
Inclination:       64.5594 deg
RA of node:       331.3334 deg
Eccentricity:    0.0085565
Arg of perigee:   275.7998 deg
Mean anomaly:      83.3322 deg
Mean motion:   14.72000799 rev/day
Decay rate:       1.86e-06 rev/day^2
Epoch rev:           10693
Checksum:              319

Satellite: SO-50
Catalog number: 27607
Epoch time:      04350.46683159
Element set:     593
Inclination:       64.5589 deg
RA of node:       338.5227 deg
Eccentricity:    0.0086542
Arg of perigee:   274.9091 deg
Mean anomaly:      84.2139 deg
Mean motion:   14.70829088 rev/day
Decay rate:       4.14e-06 rev/day^2
Epoch rev:           10671
Checksum:              330

